[[{"header":{"parameterUnit":"m.s-1","parameterCategory":1,"la1":30.2991,"la2":30.254,"lo1":-89.0895,"lo2":-89.0444,"dy":0.0017,"dx":0.0017,"nx":28,"ny":28,"refTime":"2023-11-01T21:00:00:Z","depth":0,"parameterNumber":2,"parameterNumberName":"U-component_of_WINDS"},"data":[0,0,0,0,0,0,0,0,0,0,0,0,0,0,0,0,0,0,0,0,0,0,0,0,0,0,0,0,0,0,0,0,0,0,0,0,0,0,0,0,0,0,0,0,0,0,0,0,0,0,0,0,0,0,0,0,0,0,-3.455,-3.455,0,-3.4534,-3.4534,-3.4533,-3.4408,-3.4405,-3.4401,-3.4399,-3.4386,-3.4389,-3.4391,0,0,0,0,0,0,0,0,0,0,0,0,0,-3.4477,-3.4479,-3.455,-3.455,-3.455,-3.4534,-3.4534,-3.4533,-3.4408,-3.4404,-3.4401,-3.4397,-3.4385,-3.4388,-3.4391,0,0,0,0,0,0,0,0,0,0,0,0,0,-3.449,-3.448,-3.455,-3.4485,-3.4479,-3.4534,-3.4534,-3.4533,-3.4409,-3.4404,-3.44,-3.4395,-3.4384,-3.4388,-3.4392,-3.4509,0,0,-3.4404,-3.4405,0,0,0,0,0,0,0,0,-3.4489,-3.4493,-3.4495,-3.449,-3.4483,-3.4468,-3.4503,-3.4525,-3.441,-3.4436,-3.4398,-3.4393,-3.4417,-3.4418,-3.4426,-3.4508,-3.4508,-3.4404,-3.4406,-3.4408,-3.4409,0,0,0,0,0,0,0,-3.4489,-3.4493,-3.4544,-3.4495,-3.4488,-3.4458,-3.4455,-3.4507,-3.4453,-3.4433,-3.4424,-3.4424,-3.4413,-3.4422,-3.4424,-3.4507,-3.4404,-3.4407,-3.441,-3.4411,-3.4688,-3.4692,0,0,0,0,0,0,-3.4496,-3.4493,-3.4544,-3.4543,-3.4475,-3.4464,-3.446,-3.4478,-3.4452,-3.4444,-3.4428,-3.4418,-3.4418,-3.442,-3.4423,-3.456,-3.4408,-3.4411,-3.4414,-3.4683,-3.4689,-3.4694,0,0,0,0,0,0,-3.4495,-3.4502,-3.4545,-3.4516,-3.4519,-3.447,-3.4491,-3.448,-3.4488,-3.4448,-3.4438,-3.4446,-3.4414,-3.4418,-3.4489,-3.4558,-3.4413,-3.4417,-3.4677,-3.4684,-3.4691,-3.4834,0,0,0,0,0,0,-3.4494,-3.4502,-3.4545,-3.4517,-3.4521,-3.461,-3.4495,-3.4483,-3.4495,-3.4482,-3.4463,-3.4455,-3.4411,-3.4484,-3.4493,-3.4561,-3.442,-3.467,-3.468,-3.4689,-3.4823,-3.4846,-3.4865,0,0,0,0,0,-3.4492,-3.4587,-3.4548,-3.4555,-3.4573,-3.4614,-3.4616,-3.4562,-3.4501,-3.4544,-3.4519,-3.4456,-3.4549,-3.4492,-3.4501,-3.4571,-3.4666,-3.4677,-3.4688,-3.4814,-3.4842,-3.4865,0,0,0,0,0,0,-3.4625,-3.4582,-3.4539,-3.4627,-3.4625,-3.4592,-3.4645,-3.4592,-3.4608,-3.4596,-3.4529,-3.4526,-3.4608,-3.4596,-3.4533,-3.4684,-3.4596,-3.461,-3.4689,-3.4715,-3.4735,-3.4737,-3.4423,0,0,0,0,0,-3.4664,-3.47,-3.466,-3.4743,-3.4743,-3.4695,-3.4711,-3.4669,-3.4665,-3.4664,-3.4643,-3.4642,-3.4671,-3.4692,-3.4716,-3.4821,-3.4816,-3.4874,-3.4895,-3.4912,-3.4925,-3.4982,-3.5008,-3.4731,-3.4731,-3.4731,0,0,-3.4747,-3.4728,-3.4754,-3.4769,-3.4762,-3.4802,-3.4695,-3.4741,-3.4771,-3.4671,-3.4737,-3.4722,-3.4717,-3.4805,-3.4843,-3.4798,-3.5,-3.4926,-3.4941,-3.4944,-3.4996,-3.5022,-3.5046,-3.4739,-3.4738,-3.4736,0,0,-3.4918,-3.4906,-3.4974,-3.4969,-3.496,-3.4928,-3.4944,-3.492,-3.4906,-3.497,-3.4897,-3.4932,-3.4983,-3.4983,-3.499,-3.5162,-3.5106,-3.5172,-3.5282,-3.5338,-3.536,-3.5379,-3.5443,-3.5466,-3.5185,-3.5185,-3.5185,0,-3.5022,-3.5077,-3.5016,-3.5067,-3.5077,-3.4987,-3.5057,-3.5056,-3.5056,-3.5066,-3.5015,-3.5078,-3.5068,-3.5157,-3.5199,-3.5207,-3.5225,-3.5175,-3.5362,-3.538,-3.5397,-3.5457,-3.5481,-3.5193,-3.5193,-3.5192,-3.5191,0,-3.5207,-3.5247,-3.5303,-3.5305,-3.532,-3.5381,-3.533,-3.5354,-3.5311,-3.5285,-3.5353,-3.5338,-3.5359,-3.5376,-3.5335,-3.546,-3.5433,-3.5373,-3.5284,-3.5433,-3.5488,-3.5511,-3.5205,-3.5202,-3.52,-3.5198,0,0,-3.5462,-3.5429,-3.5451,-3.5452,-3.5436,-3.5466,-3.5523,-3.5542,-3.5565,-3.5568,-3.5616,-3.5662,-3.5607,-3.5615,-3.5573,-3.5622,-3.5763,-3.5556,-3.5555,-3.5597,-3.5902,-3.5949,-3.5976,-3.5724,-3.5729,-3.5732,-3.5903,0,-3.5628,-3.5722,-3.5669,-3.5772,-3.5809,-3.5725,-3.5775,-3.5772,-3.5749,-3.5779,-3.5753,-3.5788,-3.5711,-3.5716,-3.576,-3.5736,-3.5823,-3.5723,-3.5771,-3.5773,-3.5777,-3.6004,-3.6054,-3.6216,-3.5924,-3.5928,-3.593,0,-3.5834,-3.5846,-3.5952,-3.5931,-3.5944,-3.599,-3.6004,-3.6033,-3.6029,-3.6008,-3.6018,-3.5965,-3.6022,-3.5932,-3.6011,-3.5944,-3.596,-3.5952,-3.5957,-3.5961,-3.5862,-3.6017,-3.6266,-3.6291,-3.5963,-3.5961,-3.5958,0,-3.6012,-3.6054,-3.6124,-3.6127,-3.6103,-3.6137,-3.6129,-3.612,-3.6135,-3.6148,-3.6158,-3.6178,-3.619,-3.6207,-3.6162,-3.6101,-3.6248,-3.6154,-3.6235,-3.6237,-3.6271,-3.627,-3.6529,-3.6279,-3.6279,-3.6278,-3.6278,0,-3.6204,-3.6273,-3.6204,-3.6247,-3.6323,-3.6262,-3.6339,-3.6322,-3.6314,-3.6354,-3.6283,-3.6322,-3.6259,-3.6292,-3.6257,-3.6329,-3.6335,-3.6322,-3.6312,-3.6329,-3.6331,-3.6341,-3.6329,-3.6284,-3.6283,-3.6282,-3.6281,0,-3.6416,-3.6372,-3.6443,-3.6415,-3.6409,-3.6467,-3.6443,-3.6483,-3.6454,-3.6506,-3.6515,-3.6472,-3.6508,-3.6464,-3.6496,-3.6473,-3.6571,-3.6544,-3.6573,-3.6566,-3.665,-3.6644,-3.6925,-3.696,-3.6686,-3.6689,-3.6691,0,-3.6543,-3.6594,-3.6571,-3.6592,-3.6588,-3.6622,-3.6638,-3.658,-3.6599,-3.6599,-3.664,-3.6669,-3.669,-3.6752,-3.6725,-3.675,-3.6724,-3.6821,-3.6727,-3.6744,-3.6728,-3.6727,-3.6733,-3.6841,-3.6844,-3.6847,-3.6849,0,-3.6772,-3.6748,-3.6772,-3.679,-3.681,-3.6822,-3.6828,-3.685,-3.6789,-3.6815,-3.6851,-3.6867,-3.69,-3.6932,-3.6949,-3.6942,-3.6888,-3.6878,-3.6899,-3.6918,-3.6934,-3.6929,-3.6627,-3.6873,-3.687,-3.6869,-3.6867,-3.6866,-3.6947,-3.6989,-3.698,-3.701,-3.7008,-3.7016,-3.7053,-3.7029,-3.7057,-3.7079,-3.7043,-3.7089,-3.7085,-3.7102,-3.7102,-3.7139,-3.7097,-3.7126,-3.7134,-3.7143,-3.7157,-3.6927,-3.7141,-3.7141,-3.714,-3.7139,-3.7139,0,-3.7174,-3.7164,-3.7193,-3.7203,-3.7228,-3.7171,-3.7176,-3.7201,-3.7241,-3.7241,-3.7263,-3.7305,-3.7336,-3.7311,-3.7337,-3.7371,-3.7347,-3.738,-3.7378,-3.7378,-3.7191,-3.7172,-3.74,-3.7399,-3.7399,-3.7399,-3.7399,-3.7399,-3.7296,-3.7365,-3.7341,-3.7409,-3.7399,-3.7442,-3.745,-3.7457,-3.7457,-3.7507,-3.7532,-3.7515,-3.7506,-3.7531,-3.7557,-3.7549,-3.7563,-3.7607,-3.759,-3.7416,-3.7391,-3.7367,-3.7348,-3.7609,-3.761,-3.7774,-3.7776,-3.7777]},{"header":{"parameterUnit":"m.s-1","parameterCategory":1,"la1":30.2991,"la2":30.254,"lo1":-89.0895,"lo2":-89.0444,"dy":0.0017,"dx":0.0017,"nx":28,"ny":28,"refTime":"2023-11-01T21:00:00:Z","depth":0,"parameterNumber":3,"parameterNumberName":"V-component_of_WINDS"},"data":[0,0,0,0,0,0,0,0,0,0,0,0,0,0,0,0,0,0,0,0,0,0,0,0,0,0,0,0,0,0,0,0,0,0,0,0,0,0,0,0,0,0,0,0,0,0,0,0,0,0,0,0,0,0,0,0,0,0,-0.6711,-0.6711,0,-0.6775,-0.6776,-0.6776,-0.6776,-0.6775,-0.6774,-0.6774,-0.6841,-0.6844,-0.6846,0,0,0,0,0,0,0,0,0,0,0,0,0,-0.6589,-0.6591,-0.6711,-0.6712,-0.6712,-0.6775,-0.6776,-0.6777,-0.6776,-0.6775,-0.6774,-0.6773,-0.6841,-0.6844,-0.6847,0,0,0,0,0,0,0,0,0,0,0,0,0,-0.6646,-0.6592,-0.6711,-0.672,-0.6721,-0.6775,-0.6776,-0.6777,-0.6776,-0.6775,-0.6774,-0.6773,-0.6839,-0.6843,-0.6847,-0.6897,0,0,-0.6859,-0.6861,0,0,0,0,0,0,0,0,-0.6643,-0.6651,-0.6717,-0.6719,-0.6721,-0.6766,-0.6758,-0.6817,-0.6777,-0.6755,-0.6773,-0.6772,-0.6818,-0.6823,-0.6838,-0.69,-0.6903,-0.6859,-0.6862,-0.6863,-0.6865,0,0,0,0,0,0,0,-0.6639,-0.6648,-0.6736,-0.6718,-0.672,-0.6721,-0.6727,-0.6769,-0.6793,-0.6757,-0.6757,-0.6765,-0.6818,-0.6834,-0.684,-0.6904,-0.6859,-0.6863,-0.6865,-0.6867,-0.701,-0.7011,0,0,0,0,0,0,-0.6633,-0.6645,-0.6734,-0.6738,-0.6678,-0.6724,-0.6732,-0.6753,-0.6792,-0.6797,-0.6766,-0.6765,-0.6828,-0.6835,-0.6842,-0.6904,-0.6863,-0.6867,-0.6869,-0.7008,-0.701,-0.7012,0,0,0,0,0,0,-0.663,-0.6641,-0.6732,-0.6691,-0.6703,-0.6727,-0.6751,-0.6755,-0.6771,-0.6799,-0.6803,-0.6778,-0.6828,-0.6837,-0.6883,-0.6906,-0.6869,-0.6872,-0.7007,-0.7009,-0.7011,-0.7026,0,0,0,0,0,0,-0.6627,-0.664,-0.6659,-0.6692,-0.6705,-0.6771,-0.6753,-0.6757,-0.6778,-0.6776,-0.6811,-0.6816,-0.6827,-0.6877,-0.6887,-0.6911,-0.6875,-0.7005,-0.7008,-0.701,-0.7024,-0.7029,-0.7033,0,0,0,0,0,-0.6622,-0.6661,-0.666,-0.6671,-0.6729,-0.6773,-0.678,-0.6792,-0.6779,-0.6799,-0.6817,-0.6815,-0.6901,-0.6882,-0.6893,-0.6918,-0.7003,-0.7007,-0.701,-0.7022,-0.7028,-0.7033,0,0,0,0,0,0,-0.6631,-0.6666,-0.6665,-0.6715,-0.6741,-0.6772,-0.6798,-0.6798,-0.6828,-0.6826,-0.6839,-0.6847,-0.6894,-0.691,-0.6888,-0.6968,-0.6951,-0.6956,-0.6956,-0.6962,-0.6966,-0.6962,-0.6879,0,0,0,0,0,-0.6639,-0.6671,-0.6699,-0.6741,-0.6754,-0.6773,-0.6793,-0.6799,-0.6827,-0.6838,-0.6859,-0.6886,-0.6919,-0.6941,-0.6973,-0.7025,-0.7034,-0.7048,-0.7052,-0.7056,-0.7061,-0.7091,-0.7098,-0.7022,-0.7022,-0.7022,0,0,-0.6656,-0.6678,-0.6698,-0.6743,-0.6764,-0.6797,-0.6783,-0.6818,-0.6844,-0.6843,-0.6889,-0.6905,-0.6936,-0.6986,-0.7009,-0.7001,-0.7083,-0.706,-0.7063,-0.7066,-0.7095,-0.7102,-0.7108,-0.7025,-0.7024,-0.7024,0,0,-0.6703,-0.6723,-0.676,-0.6781,-0.6812,-0.6825,-0.6833,-0.6865,-0.6875,-0.6921,-0.6921,-0.6951,-0.7008,-0.703,-0.7049,-0.7103,-0.7103,-0.7113,-0.7138,-0.7166,-0.7172,-0.7177,-0.7198,-0.7205,-0.7118,-0.7118,-0.7118,0,-0.6721,-0.677,-0.678,-0.6816,-0.6836,-0.6836,-0.6874,-0.6894,-0.6934,-0.6948,-0.6938,-0.7009,-0.703,-0.7085,-0.7098,-0.7113,-0.7124,-0.711,-0.717,-0.7176,-0.7181,-0.7201,-0.7208,-0.7119,-0.7119,-0.7119,-0.7119,0,-0.679,-0.6825,-0.6851,-0.6889,-0.6912,-0.6949,-0.6964,-0.6986,-0.699,-0.7003,-0.705,-0.7074,-0.7111,-0.7124,-0.7129,-0.718,-0.7175,-0.7167,-0.715,-0.7189,-0.7208,-0.7215,-0.7121,-0.712,-0.712,-0.712,0,0,-0.6848,-0.689,-0.6899,-0.6917,-0.695,-0.6977,-0.7013,-0.7049,-0.7068,-0.7095,-0.7127,-0.7174,-0.7167,-0.7188,-0.7195,-0.7219,-0.7262,-0.7209,-0.721,-0.722,-0.7321,-0.7328,-0.7337,-0.7261,-0.7263,-0.7264,-0.7319,0,-0.6901,-0.6966,-0.6974,-0.7032,-0.7064,-0.7063,-0.7095,-0.7119,-0.7132,-0.7162,-0.7176,-0.721,-0.7198,-0.7211,-0.7235,-0.7252,-0.7283,-0.7248,-0.7292,-0.7294,-0.7287,-0.7347,-0.7354,-0.7406,-0.7327,-0.7328,-0.7329,0,-0.6972,-0.7,-0.7061,-0.7089,-0.7103,-0.7131,-0.7165,-0.7192,-0.7219,-0.7227,-0.725,-0.7253,-0.7291,-0.7271,-0.7324,-0.73,-0.7318,-0.7329,-0.7331,-0.7338,-0.7315,-0.7357,-0.7422,-0.7431,-0.734,-0.7339,-0.7339,0,-0.701,-0.7063,-0.7106,-0.712,-0.7154,-0.7175,-0.719,-0.7215,-0.7236,-0.7265,-0.7278,-0.7311,-0.733,-0.7355,-0.7367,-0.7351,-0.742,-0.7401,-0.7429,-0.7429,-0.7445,-0.7445,-0.7517,-0.7454,-0.7453,-0.7453,-0.7453,0,-0.7069,-0.7106,-0.7123,-0.715,-0.7192,-0.7201,-0.7243,-0.7257,-0.728,-0.731,-0.731,-0.7339,-0.7352,-0.7382,-0.7391,-0.7435,-0.7442,-0.7451,-0.7453,-0.7452,-0.7451,-0.7466,-0.7463,-0.7455,-0.7455,-0.7455,-0.7454,0,-0.712,-0.7132,-0.718,-0.7207,-0.7215,-0.7245,-0.7269,-0.7295,-0.7307,-0.7344,-0.7354,-0.7373,-0.7408,-0.7422,-0.7466,-0.7472,-0.7522,-0.7521,-0.7513,-0.7515,-0.7543,-0.754,-0.7629,-0.7641,-0.7568,-0.7568,-0.7569,0,-0.7158,-0.7187,-0.7217,-0.7237,-0.7252,-0.7284,-0.7305,-0.7314,-0.7336,-0.7368,-0.739,-0.7425,-0.7454,-0.7511,-0.7529,-0.7562,-0.7563,-0.7591,-0.7568,-0.7566,-0.7566,-0.7565,-0.7568,-0.7597,-0.7597,-0.7598,-0.7599,0,-0.7225,-0.7229,-0.7259,-0.729,-0.7315,-0.734,-0.7365,-0.7381,-0.7394,-0.7418,-0.7454,-0.7476,-0.752,-0.7555,-0.7589,-0.7605,-0.7605,-0.7605,-0.7614,-0.7614,-0.7609,-0.7614,-0.7527,-0.7604,-0.7603,-0.7603,-0.7603,-0.7602,-0.7272,-0.7297,-0.7322,-0.7355,-0.7374,-0.7397,-0.7423,-0.7437,-0.7467,-0.7503,-0.7507,-0.7546,-0.7571,-0.7616,-0.7634,-0.7664,-0.7657,-0.7669,-0.7673,-0.7676,-0.7679,-0.7602,-0.767,-0.767,-0.767,-0.767,-0.767,0,-0.734,-0.7355,-0.7385,-0.742,-0.7445,-0.744,-0.7467,-0.7489,-0.7523,-0.7547,-0.7574,-0.7616,-0.7649,-0.7669,-0.7703,-0.7724,-0.7725,-0.7733,-0.7733,-0.7737,-0.7683,-0.7673,-0.7732,-0.7732,-0.7732,-0.7732,-0.7732,-0.7732,-0.7379,-0.7422,-0.7429,-0.7482,-0.7497,-0.7535,-0.755,-0.7572,-0.759,-0.7636,-0.7664,-0.7676,-0.7698,-0.7733,-0.7764,-0.7769,-0.7783,-0.7792,-0.7796,-0.7746,-0.774,-0.7734,-0.7725,-0.7794,-0.7794,-0.7848,-0.7848,-0.7849]}]]